Regional Weather Roundup
Issued by NWS

Home | Current Version | Previous Version | Graphics & Text | Print | Product List | Glossary On
Versions: 1 2 3 4 5 6 7 8 9 10 11 12 13 14 15 16 17 18 19 20 21 22 23 24 25 26 27 28 29 30 31 32 33 34 35 36 37 38 39 40 41 42 43 44 45 46 47 48 49 50
804
ASUS44 KJAN 311310
RWRMS

MISSISSIPPI HOURLY WEATHER ROUNDUP
NATIONAL WEATHER SERVICE JACKSON MS
800 AM CDT FRI OCT 31 2014

NOTE: "FAIR: INDICATES FEW OR NO CLOUDS BELOW 12,000 FEET WITH NO
SIGNIFICANT WEATHER AND/OR OBSTRUCTIONS TO VISIBILITY.

MSZ001>002-007>008-010>013-018>021-025>028-034>036-311400-
NORTHWEST MISSISSIPPI

CITY           SKY/WX    TMP DP  RH WIND       PRES   REMARKS
CLARKSDALE     FAIR      52  48  87 NW10      30.06R
CLEVELAND      FAIR      53  48  84 NW12      30.06R
GREENWOOD      CLEAR     47  46  97 CALM      30.04R
GREENVILLE     CLEAR     54  46  74 NW13      30.06R
GRENADA        FAIR      50  50 100 NW14G22   30.03R
OXFORD         FAIR      45  43  93 CALM      30.03R
TUNICA         SUNNY     50  46  87 N16       30.07R
$$

MSZ003>006-009-014>017-022>024-029>033-037>039-311400-
NORTHEAST MISSISSIPPI

CITY           SKY/WX    TMP DP  RH WIND       PRES   REMARKS
COLUMBUS AFB   CLEAR     44  43  95 CALM      29.99R
CORINTH        FAIR      45  43  93 CALM      30.01R
GOLDN TRIANGLE PTCLDY    48  45  87 S5        29.99R
STARKVILLE     FAIR      41  41 100 CALM      29.99S
TUPELO         CLEAR     46  44  93 NE7       29.99R
$$

MSZ040-058-311400-
CENTRAL MISSISSIPPI

CITY           SKY/WX    TMP DP  RH WIND       PRES   REMARKS
JACKSON INTL   PTCLDY    48  44  86 CALM      30.03R
JACKSON HAWKNS CLEAR     51  45  79 NW7       30.04R
MERIDIAN KEY   CLEAR     42  40  92 SW3       30.01S
MERIDIAN NAS   PTCLDY    46  42  86 SW3       30.00S
RAYMOND        FAIR      46  41  81 CALM      30.05R
VICKSBURG      CLEAR     47  45  93 NW5       30.07R
$$

MSZ059>079-311400-
SOUTH MISSISSIPPI

CITY           SKY/WX    TMP DP  RH WIND       PRES   REMARKS
BROOKHAVEN     FAIR      52  46  82 W5        30.06R
COLUMBIA         N/A     43  41  93 MISG      30.03R
HATTIESBURG    CLEAR     44  41  89 CALM      30.04R
MCCOMB         CLEAR     50  44  80 NW7       30.05R
NATCHEZ        CLEAR     46  43  87 CALM      30.08R
PINE BELT      CLEAR     46  43  87 CALM      30.03S
$$

MSZ080>082-311400-
COASTAL MISSISSIPPI

CITY           SKY/WX    TMP DP  RH WIND       PRES   REMARKS
BAY ST LOUIS   CLEAR     45  41  87 CALM      30.05R
BILOXI         CLEAR     53  46  75 N5        30.04R
PASCAGOULA     PTCLDY    44  43  96 CALM      30.04R
GULFPORT       CLEAR     48  44  86 CALM      30.04R
$$



USA.gov is the U.S. government's official web portal to all federal, state and local government web resources and services.